Bonifay, FL

10:35 PM CDT on August 31, 2016 (GMT -0500)
Chipley

Weather History for KVSH - September, 2014

Change the Weather History Date:

Thursday, September 4, 2014

  Actual Average (KMAI) Record (KMAI)
Temperature  
Mean Temperature 86 °F 80 °F  
Max Temperature 93 °F 90 °F 96 °F (2010)
Min Temperature 80 °F 71 °F 69 °F (1998)
Degree Days  
Heating Degree Days 0    
Month to date heating degree days  
Since 1 July heating degree days  
Cooling Degree Days 22    
Month to date cooling degree days  
Year to date cooling degree days  
Growing Degree Days 36 (Base 50)    
Moisture  
Dew Point 71 °F    
Average Humidity 66    
Maximum Humidity 79    
Minimum Humidity 46    
Precipitation  
Precipitation 0.00 in 0.13 in 1.34 in (2012)
Month to date precipitation 0.53  
Year to date precipitation 38.86  
Sea Level Pressure  
Sea Level Pressure 30.05 in    
Wind  
Wind Speed 2 mph (SE)    
Max Wind Speed 8 mph    
Max Gust Speed 18 mph    
Visibility 10 miles    
Events      
T = Trace of Precipitation, MM = Missing Value Source: NWS Daily Summary

Daily Weather History Graph

Daily Weather History Graph

Search for Another Location

Airport or City:

Trip Planner

Search our weather history database for the weather conditions in past years. The results will help you decide how hot, cold, wet, or windy it might be!

Date:

Astronomy

Sep. 04, 2014 Rise Set
Actual Time 6:20 AM CDT 7:01 PM CDT
Civil Twilight 5:56 AM CDT 7:26 PM CDT
Nautical Twilight 5:27 AM CDT 7:54 PM CDT
Astronomical Twilight 4:57 AM CDT 8:24 PM CDT
Moon 3:27 PM CDT (9/4) 1:23 AM CDT (9/4)
Length of Visible Light 13h 30m
Length of Day
12h 41m
Waxing Gibbous, 74% of the Moon is Illuminated
Sep 4
Waxing Gibbous
Sep 8
Full
Sep 15
Last Quarter
Sep 24
New
Oct 1
First Quarter

Hourly Weather History & Observations

Time (CDT) Temp. Heat Index Dew Point Humidity Pressure Visibility Wind Dir Wind Speed Gust Speed Precip Events Conditions
12:15 AM 80.6 °F 84.6 °F 71.6 °F 74% 30.04 in 10.0 mi Calm Calm - N/A   Clear
12:35 AM 80.6 °F 84.6 °F 71.6 °F 74% 30.04 in 10.0 mi NW 4.6 mph - N/A   Clear
12:55 AM 80.6 °F 84.6 °F 71.6 °F 74% 30.04 in 10.0 mi Calm Calm - N/A   Clear
1:15 AM 80.6 °F 84.6 °F 71.6 °F 74% 30.04 in 10.0 mi Calm Calm - N/A   Clear
1:35 AM 82.4 °F 87.2 °F 71.6 °F 70% 30.03 in 10.0 mi Calm Calm - N/A   Clear
1:55 AM 80.6 °F 84.6 °F 71.6 °F 74% 30.03 in 10.0 mi Calm Calm - N/A   Clear
2:15 AM 80.6 °F 84.6 °F 71.6 °F 74% 30.02 in 10.0 mi Calm Calm - N/A   Clear
2:35 AM 80.6 °F 84.6 °F 71.6 °F 74% 30.02 in 10.0 mi Calm Calm - N/A   Clear
2:55 AM 80.6 °F 84.6 °F 71.6 °F 74% 30.02 in 10.0 mi Calm Calm - N/A   Clear
3:15 AM 80.6 °F 84.6 °F 71.6 °F 74% 30.02 in 10.0 mi Calm Calm - N/A   Clear
3:35 AM 80.6 °F 84.6 °F 71.6 °F 74% 30.02 in 10.0 mi Calm Calm - N/A   Clear
3:55 AM 80.6 °F 84.6 °F 71.6 °F 74% 30.02 in 10.0 mi Calm Calm - N/A   Partly Cloudy
4:15 AM 80.6 °F 84.6 °F 71.6 °F 74% 30.03 in 10.0 mi Calm Calm - N/A   Scattered Clouds
4:35 AM 80.6 °F 84.6 °F 71.6 °F 74% 30.03 in 10.0 mi Calm Calm - N/A   Clear
4:55 AM 80.6 °F 84.6 °F 71.6 °F 74% 30.03 in 10.0 mi Calm Calm - N/A   Clear
5:15 AM 80.6 °F 84.6 °F 71.6 °F 74% 30.03 in 10.0 mi Calm Calm - N/A   Clear
5:35 AM 80.6 °F 84.6 °F 71.6 °F 74% 30.03 in 10.0 mi Calm Calm - N/A   Clear
5:55 AM 80.6 °F 84.6 °F 71.6 °F 74% 30.04 in 10.0 mi Calm Calm - N/A   Clear
6:15 AM 80.6 °F 84.6 °F 71.6 °F 74% 30.04 in 10.0 mi Calm Calm - N/A   Clear
6:35 AM 80.6 °F 84.6 °F 71.6 °F 74% 30.05 in 10.0 mi Calm Calm - N/A   Clear
6:55 AM 80.6 °F 85.4 °F 73.4 °F 79% 30.05 in 10.0 mi Calm Calm - N/A   Partly Cloudy
7:15 AM 80.6 °F 85.4 °F 73.4 °F 79% 30.06 in 10.0 mi NE 5.8 mph - N/A   Clear
7:35 AM 80.6 °F 85.4 °F 73.4 °F 79% 30.07 in 10.0 mi ENE 4.6 mph - N/A   Clear
7:55 AM 80.6 °F 85.4 °F 73.4 °F 79% 30.06 in 10.0 mi NNE 3.5 mph - N/A   Clear
8:15 AM 80.6 °F 85.4 °F 73.4 °F 79% 30.06 in 10.0 mi Calm Calm - N/A   Clear
8:35 AM 82.4 °F 88.2 °F 73.4 °F 74% 30.07 in 10.0 mi NE 4.6 mph - N/A   Clear
8:55 AM 82.4 °F 88.2 °F 73.4 °F 74% 30.07 in 10.0 mi NE 3.5 mph - N/A   Clear
9:15 AM 82.4 °F 88.2 °F 73.4 °F 74% 30.08 in 10.0 mi NE 5.8 mph - N/A   Clear
9:35 AM 84.2 °F 89.6 °F 71.6 °F 66% 30.08 in 10.0 mi ESE 4.6 mph - N/A   Clear
9:55 AM 84.2 °F 89.6 °F 71.6 °F 66% 30.08 in 10.0 mi Calm Calm - N/A   Clear
10:15 AM 86.0 °F 91.8 °F 71.6 °F 62% 30.09 in 10.0 mi Calm Calm - N/A   Clear
10:35 AM 87.8 °F 93.8 °F 71.6 °F 58% 30.09 in 10.0 mi NE 5.8 mph - N/A   Clear
10:55 AM 87.8 °F 93.8 °F 71.6 °F 58% 30.09 in 10.0 mi SSE 6.9 mph - N/A   Mostly Cloudy
11:15 AM 87.8 °F 93.8 °F 71.6 °F 58% 30.09 in 10.0 mi Calm Calm - N/A   Partly Cloudy
11:35 AM 89.6 °F 96.2 °F 71.6 °F 55% 30.09 in 10.0 mi SSE 5.8 mph - N/A   Clear
11:55 AM 89.6 °F 96.2 °F 71.6 °F 55% 30.08 in 10.0 mi SSE 4.6 mph - N/A   Partly Cloudy
12:15 PM 91.4 °F 98.4 °F 71.6 °F 52% 30.08 in 10.0 mi Calm Calm - N/A   Partly Cloudy
12:35 PM 91.4 °F 96.8 °F 69.8 °F 49% 30.07 in 10.0 mi ESE 3.5 mph - N/A   Partly Cloudy
12:55 PM 91.4 °F 96.8 °F 69.8 °F 49% 30.07 in 10.0 mi SSE 3.5 mph - N/A   Clear
1:15 PM 93.2 °F 98.8 °F 69.8 °F 46% 30.06 in 10.0 mi Calm Calm - N/A   Scattered Clouds
1:35 PM 93.2 °F 98.8 °F 69.8 °F 46% 30.06 in 10.0 mi SSE 4.6 mph - N/A   Partly Cloudy
1:55 PM 93.2 °F 98.8 °F 69.8 °F 46% 30.05 in 10.0 mi South 3.5 mph - N/A   Partly Cloudy
2:15 PM 89.6 °F 96.2 °F 71.6 °F 55% 30.05 in 10.0 mi East 8.1 mph - N/A   Mostly Cloudy
2:35 PM 87.8 °F 90.4 °F 66.2 °F 49% 30.04 in 10.0 mi East 4.6 mph - N/A   Mostly Cloudy
2:55 PM 87.8 °F 92.6 °F 69.8 °F 55% 30.05 in 9.0 mi NNE 3.5 mph - N/A   Mostly Cloudy
3:15 PM 82.4 °F 87.2 °F 71.6 °F 70% 30.05 in 10.0 mi WSW 6.9 mph 16.1 mph N/A   Overcast
3:35 PM 82.4 °F 85.4 °F 68.0 °F 62% 30.05 in 9.0 mi SW 5.8 mph - N/A   Scattered Clouds
3:55 PM 84.2 °F 87.3 °F 68.0 °F 58% 30.05 in 10.0 mi South 8.1 mph 18.4 mph N/A   Scattered Clouds
4:15 PM 80.6 °F 83.9 °F 69.8 °F 70% 30.04 in 10.0 mi South 3.5 mph - N/A   Mostly Cloudy
4:35 PM 82.4 °F 86.3 °F 69.8 °F 66% 30.03 in 10.0 mi South 3.5 mph - N/A   Overcast
4:55 PM 82.4 °F 85.4 °F 68.0 °F 62% 30.03 in 10.0 mi Calm Calm - N/A   Mostly Cloudy
5:15 PM 87.8 °F 92.6 °F 69.8 °F 55% 30.03 in 10.0 mi Calm Calm - N/A   Clear
5:35 PM 89.6 °F 94.7 °F 69.8 °F 52% 30.04 in 10.0 mi South 4.6 mph - N/A   Clear
5:55 PM 87.8 °F 92.6 °F 69.8 °F 55% 30.04 in 10.0 mi SSW 4.6 mph - N/A   Clear
6:15 PM 87.8 °F 92.6 °F 69.8 °F 55% 30.04 in 10.0 mi Calm Calm - N/A   Clear
6:35 PM 87.8 °F 92.6 °F 69.8 °F 55% 30.03 in 10.0 mi SSE 3.5 mph - N/A   Clear
6:55 PM 86.0 °F 90.4 °F 69.8 °F 58% 30.03 in 10.0 mi East 4.6 mph - N/A   Clear
7:15 PM 86.0 °F 90.4 °F 69.8 °F 58% 30.04 in 10.0 mi East 3.5 mph - N/A   Clear
7:35 PM 84.2 °F 89.6 °F 71.6 °F 66% 30.05 in 10.0 mi SE 5.8 mph - N/A   Clear
7:55 PM 84.2 °F 89.6 °F 71.6 °F 66% 30.05 in 10.0 mi SE 3.5 mph - N/A   Clear
8:15 PM 84.2 °F 89.6 °F 71.6 °F 66% 30.05 in 10.0 mi Calm Calm - N/A   Clear
8:35 PM 84.2 °F 89.6 °F 71.6 °F 66% 30.06 in 10.0 mi SE 3.5 mph - N/A   Clear
9:15 PM 84.2 °F 89.6 °F 71.6 °F 66% 30.07 in 10.0 mi Calm Calm - N/A   Clear
9:35 PM 84.2 °F 89.6 °F 71.6 °F 66% 30.07 in 10.0 mi Calm Calm - N/A   Clear
9:55 PM 84.2 °F 89.6 °F 71.6 °F 66% 30.08 in 10.0 mi ESE 3.5 mph - N/A   Clear
10:15 PM 84.2 °F 89.6 °F 71.6 °F 66% 30.08 in 10.0 mi SE 4.6 mph - N/A   Clear
10:35 PM 82.4 °F 87.2 °F 71.6 °F 70% 30.08 in 10.0 mi Calm Calm - N/A   Clear
10:55 PM 82.4 °F 88.2 °F 73.4 °F 74% 30.08 in 10.0 mi SSE 3.5 mph - N/A   Clear
11:15 PM 82.4 °F 87.2 °F 71.6 °F 70% 30.08 in 10.0 mi SSE 3.5 mph - N/A   Clear
11:35 PM 82.4 °F 87.2 °F 71.6 °F 70% 30.08 in 10.0 mi SSE 3.5 mph - N/A   Clear
11:55 PM 82.4 °F 87.2 °F 71.6 °F 70% 30.08 in 10.0 mi ESE 3.5 mph - N/A   Clear